Minneapolis Flying Cloud, MN

1:28 AM CDT on March 25, 2017 (GMT -0500)
Flying Cloud

Weather History for KFCM - December, 2014

Change the Weather History Date:

Friday, December 19, 2014

  Actual Average Record
Temperature  
Mean Temperature 26 °F -  
Max Temperature 30 °F 25 °F 42 °F (2006)
Min Temperature 21 °F 11 °F -11 °F (2005)
Degree Days  
Heating Degree Days 40    
Moisture  
Dew Point 22 °F    
Average Humidity 81    
Maximum Humidity 86    
Minimum Humidity 78    
Precipitation  
Precipitation 0.00 in - - ()
Sea Level Pressure  
Sea Level Pressure 30.24 in    
Wind  
Wind Speed 7 mph (SE)    
Max Wind Speed 12 mph    
Max Gust Speed -    
Visibility 6 miles    
Events Snow    
Averages and records for this station are not official NWS values.
T = Trace of Precipitation, MM = Missing Value Source: NWS Daily Summary

Daily Weather History Graph

Daily Weather History Graph

Search for Another Location

Airport or City:

Trip Planner

Search our weather history database for the weather conditions in past years. The results will help you decide how hot, cold, wet, or windy it might be!

Date:

Astronomy

Dec. 19, 2014 Rise Set
Actual Time 7:47 AM CST 4:34 PM CST
Civil Twilight 7:13 AM CST 5:08 PM CST
Nautical Twilight 6:36 AM CST 5:45 PM CST
Astronomical Twilight 6:00 AM CST 6:21 PM CST
Moon 4:57 AM CST (12/19) 3:02 PM CST (12/19)
Length of Visible Light 9h 54m
Length of Day
8h 47m
Waning Crescent, 7% of the Moon is Illuminated
Dec 19
Waning Crescent
Dec 21
New
Dec 28
First Quarter
Jan 4
Full
Jan 13
Last Quarter

Hourly Weather History & Observations

Time (CST) Temp. Windchill Dew Point Humidity Pressure Visibility Wind Dir Wind Speed Gust Speed Precip Events Conditions
12:53 AM 21.0 °F 13.4 °F 15.1 °F 78% 30.31 in 10.0 mi SE 5.8 mph - N/A   Overcast
1:53 AM 21.0 °F 14.6 °F 16.0 °F 81% 30.30 in 10.0 mi SE 4.6 mph - N/A   Overcast
2:53 AM 21.9 °F 14.5 °F 16.0 °F 78% 30.30 in 9.0 mi SE 5.8 mph - N/A   Overcast
3:53 AM 21.9 °F 15.7 °F 16.0 °F 78% 30.29 in 6.0 mi East 4.6 mph - 0.00 in Snow Light Snow
4:53 AM 21.9 °F 15.7 °F 17.1 °F 82% 30.28 in 7.0 mi ESE 4.6 mph - 0.00 in   Overcast
5:53 AM 21.9 °F 14.5 °F 17.1 °F 82% 30.28 in 7.0 mi SE 5.8 mph - N/A   Overcast
6:53 AM 23.0 °F 14.7 °F 18.0 °F 81% 30.27 in 8.0 mi SE 6.9 mph - N/A   Overcast
7:48 AM 23.0 °F 15.8 °F 19.4 °F 86% 30.23 in 7.0 mi ESE 5.8 mph - N/A   Overcast
7:53 AM 23.0 °F 15.8 °F 19.0 °F 85% 30.27 in 7.0 mi ESE 5.8 mph - N/A   Overcast
8:53 AM 24.1 °F 16.0 °F 19.0 °F 81% 30.27 in 6.0 mi SE 6.9 mph - N/A   Haze
9:53 AM 25.0 °F 16.3 °F 21.0 °F 85% 30.28 in 5.0 mi SE 8.1 mph - N/A   Overcast
10:53 AM 26.1 °F 18.4 °F 21.0 °F 81% 30.26 in 5.0 mi SE 6.9 mph - N/A   Haze
11:53 AM 27.0 °F 19.5 °F 21.9 °F 81% 30.25 in 4.0 mi SE 6.9 mph - N/A   Haze
12:53 PM 28.0 °F 20.0 °F 23.0 °F 81% 30.24 in 4.0 mi SE 8.1 mph - N/A   Haze
1:53 PM 28.9 °F 21.1 °F 23.0 °F 78% 30.22 in 5.0 mi SE 8.1 mph - N/A   Haze
2:53 PM 28.9 °F 19.8 °F 24.1 °F 82% 30.21 in 5.0 mi SSE 10.4 mph - N/A   Haze
3:53 PM 30.0 °F 21.7 °F 24.1 °F 79% 30.21 in 4.0 mi SE 9.2 mph - N/A   Haze
4:53 PM 30.0 °F 21.1 °F 25.0 °F 82% 30.22 in 6.0 mi SSE 10.4 mph - N/A   Haze
5:05 PM 30.0 °F 20.5 °F 25.0 °F 82% 30.17 in 6.0 mi SSE 11.5 mph - N/A   Haze
5:53 PM 30.0 °F 20.5 °F 25.0 °F 82% 30.22 in 6.0 mi SSE 11.5 mph - N/A   Haze
6:53 PM 30.0 °F 21.7 °F 25.0 °F 82% 30.22 in 6.0 mi SSE 9.2 mph - N/A   Haze
7:53 PM 30.0 °F 23.2 °F 25.0 °F 82% 30.22 in 5.0 mi SSE 6.9 mph - N/A   Haze
8:53 PM 30.0 °F 21.7 °F 25.0 °F 82% 30.20 in 5.0 mi SE 9.2 mph - N/A   Haze
9:15 PM 30.0 °F 22.4 °F 25.0 °F 82% 30.16 in 5.0 mi SE 8.1 mph - N/A   Haze
9:53 PM 30.0 °F 21.1 °F 25.0 °F 82% 30.19 in 5.0 mi SSE 10.4 mph - N/A   Haze
10:53 PM 30.0 °F 21.1 °F 25.0 °F 82% 30.19 in 5.0 mi SSE 10.4 mph - N/A   Haze
11:35 PM 30.0 °F 20.5 °F 25.0 °F 82% 30.15 in 5.0 mi SSE 11.5 mph - N/A   Haze
11:53 PM 30.0 °F 20.5 °F 25.0 °F 82% 30.18 in 5.0 mi SSE 11.5 mph - N/A   Haze